W8UFO-13 Weather Reports


Display with metric or nautical units.
time (UTC)temp
F
wind
direction
speed
MPH
gust
MPH
rain 1hr
in
rain 24hr
in
rain mn
in
humidity
%
barometer
mb
20260507192917 64 0.0 0.0 0.00 0.67 0.16 71 1015.2
20260507192417 64 0.0 1.0 0.00 0.67 0.16 72 1015.2
20260507191917 64 0.0 0.0 0.00 0.67 0.16 74 1015.2
20260507191417 64 0.0 1.0 0.00 0.67 0.16 73 1015.3
20260507190917 64 0.0 1.0 0.00 0.67 0.16 72 1015.2
20260507190417 64 0.0 1.0 0.00 0.67 0.16 73 1015.3
20260507185917 64 0.0 1.0 0.00 0.67 0.16 71 1015.2
20260507185417 64 0.0 1.0 0.00 0.67 0.16 73 1015.1
20260507184917 64 180 1.0 1.0 0.00 0.67 0.16 75 1015.2
20260507184417 63 0.0 1.0 0.00 0.67 0.16 74 1015.2
20260507183917 64 135 2.0 4.0 0.00 0.67 0.16 68 1015.1
20260507183417 64 0.0 0.0 0.00 0.67 0.16 73 1015.1
20260507182917 64 0.0 0.0 0.00 0.67 0.16 75 1015.1
20260507182417 64 0.0 1.0 0.00 0.67 0.16 68 1015.3
20260507181917 65 0.0 1.0 0.00 0.67 0.16 70 1015.2
20260507181417 66 68 1.0 3.0 0.00 0.67 0.16 72 1015.2
20260507180917 66 203 2.0 4.0 0.00 0.67 0.16 69 1015.3
20260507180417 65 0.0 1.0 0.00 0.67 0.16 76 1015.5
20260507175917 64 135 1.0 1.0 0.00 0.67 0.16 73 1015.8
20260507175417 64 0.0 2.0 0.00 0.67 0.16 72 1015.7
20260507174917 63 0.0 1.0 0.00 0.67 0.16 78 1015.6
20260507174417 62 0.0 1.0 0.00 0.67 0.16 76 1015.9
20260507173917 62 0.0 1.0 0.00 0.67 0.16 80 1015.9
20260507173417 61 203 1.0 3.0 0.00 0.67 0.16 77 1015.9
20260507172917 61 45 1.0 1.0 0.00 0.67 0.16 81 1016.0
20260507172417 60 0.0 1.0 0.00 0.67 0.16 83 1016.0
20260507171917 60 90 1.0 1.0 0.00 0.67 0.16 80 1015.9
20260507171417 60 0.0 2.0 0.00 0.67 0.16 83 1015.9
20260507170917 59 0.0 1.0 0.00 0.67 0.16 84 1015.9
20260507170417 60 90 1.0 2.0 0.00 0.67 0.16 85 1015.9
20260507165917 59 0.0 1.0 0.00 0.67 0.16 88 1016.0
20260507165417 58 0.0 0.0 0.00 0.67 0.16 86 1015.9
20260507164917 58 0.0 0.0 0.00 0.67 0.16 88 1015.9
20260507164417 58 0.0 0.0 0.00 0.67 0.16 90 1015.9
20260507163917 57 0.0 0.0 0.00 0.67 0.16 89 1015.9
20260507163417 57 0.0 0.0 0.00 0.67 0.16 90 1015.9
20260507162917 57 248 1.0 1.0 0.00 0.67 0.16 90 1015.9
20260507162417 57 0.0 0.0 0.00 0.67 0.16 90 1015.9
20260507161917 57 0.0 1.0 0.00 0.67 0.16 91 1015.9
20260507161417 58 0.0 1.0 0.00 0.67 0.16 92 1015.9
20260507160917 57 0.0 0.0 0.01 0.67 0.16 91 1015.7
20260507160417 57 180 1.0 2.0 0.01 0.67 0.16 91 1015.7
20260507155917 57 0.0 0.0 0.01 0.67 0.16 92 1015.6
20260507155418 57 0.0 1.0 0.01 0.67 0.16 91 1015.6
20260507154917 56 0.0 0.0 0.01 0.67 0.16 90 1015.5
20260507154417 57 0.0 1.0 0.01 0.67 0.16 93 1015.7
20260507153917 57 0.0 1.0 0.02 0.67 0.16 93 1015.6
20260507153417 57 0.0 0.0 0.02 0.67 0.16 94 1015.5
20260507152917 56 0.0 0.0 0.02 0.67 0.16 93 1015.4
20260507152417 56 0.0 0.0 0.02 0.67 0.16 94 1015.5
20260507151917 56 0.0 0.0 0.02 0.67 0.16 94 1015.6
20260507151417 56 0.0 1.0 0.02 0.67 0.16 94 1015.4
20260507150917 56 90 1.0 3.0 0.01 0.67 0.15 94 1015.5
20260507150417 55 0.0 0.0 0.02 0.67 0.15 95 1015.5
20260507145917 55 0.0 1.0 0.02 0.68 0.15 94 1015.5
20260507145417 55 0.0 0.0 0.02 0.70 0.15 96 1015.5
20260507144917 55 0.0 1.0 0.02 0.71 0.15 96 1015.4
20260507144417 55 0.0 1.0 0.02 0.72 0.15 95 1015.6
20260507143917 55 0.0 0.0 0.01 0.72 0.14 96 1015.4
20260507143417 55 0.0 0.0 0.01 0.73 0.14 96 1015.3
20260507142917 55 0.0 0.0 0.01 0.75 0.14 96 1015.2
20260507142417 55 0.0 0.0 0.01 0.78 0.14 95 1015.1
20260507141917 55 0.0 1.0 0.01 0.79 0.14 96 1015.2
20260507141417 55 0.0 0.0 0.01 0.81 0.14 96 1015.1
20260507140917 55 0.0 0.0 0.01 0.83 0.14 96 1014.9
20260507140417 55 0.0 1.0 0.00 0.84 0.13 96 1014.9
20260507135917 55 0.0 0.0 0.00 0.86 0.13 96 1014.9
20260507135417 55 0.0 0.0 0.00 0.86 0.13 96 1014.7
20260507134917 55 0.0 0.0 0.00 0.87 0.13 96 1014.9
20260507134417 55 0.0 0.0 0.00 0.89 0.13 96 1014.8
20260507133917 55 0.0 1.0 0.00 0.91 0.13 96 1014.8
20260507133417 55 0.0 0.0 0.01 0.92 0.13 96 1014.6
20260507132917 55 0.0 1.0 0.01 0.93 0.13 96 1014.6
20260507132417 55 0.0 0.0 0.01 0.96 0.13 97 1014.7
20260507131917 55 0.0 0.0 0.01 0.98 0.13 96 1014.6
20260507131417 55 0.0 0.0 0.01 1.02 0.13 96 1014.6
20260507130917 55 0.0 0.0 0.01 1.03 0.13 97 1014.8
20260507130417 55 0.0 0.0 0.01 1.05 0.13 96 1014.9
20260507125917 55 0.0 0.0 0.01 1.08 0.13 96 1014.8
20260507125417 55 0.0 0.0 0.01 1.12 0.13 96 1014.9
20260507124917 55 0.0 0.0 0.01 1.13 0.13 97 1014.8
20260507124417 55 0.0 0.0 0.01 1.15 0.13 97 1014.7
20260507123917 55 0.0 0.0 0.01 1.19 0.13 96 1014.6
20260507123418 55 0.0 1.0 0.00 1.21 0.12 96 1014.5
20260507122917 55 0.0 0.0 0.00 1.23 0.12 97 1014.3
20260507122417 55 0.0 0.0 0.00 1.25 0.12 97 1014.5
20260507121917 55 0.0 0.0 0.00 1.26 0.12 97 1014.6
20260507121417 55 0.0 0.0 0.00 1.27 0.12 97 1014.6
20260507120917 55 0.0 1.0 0.00 1.28 0.12 97 1014.4
20260507120417 55 0.0 1.0 0.00 1.30 0.12 97 1014.3
20260507115917 55 0.0 0.0 0.00 1.30 0.12 97 1014.5
20260507115417 55 0.0 0.0 0.00 1.31 0.12 97 1014.5
20260507114916 55 0.0 0.0 0.00 1.33 0.12 97 1014.5
20260507114417 55 0.0 0.0 0.00 1.36 0.12 97 1014.1
20260507113917 54 0.0 0.0 0.01 1.37 0.12 97 1013.9
20260507113417 54 0.0 1.0 0.01 1.37 0.12 97 1013.8
20260507112916 54 0.0 1.0 0.01 1.38 0.12 97 1013.9
20260507112417 54 0.0 0.0 0.01 1.38 0.12 97 1013.7
20260507111917 54 0.0 0.0 0.01 1.38 0.12 97 1013.9
20260507111417 54 0.0 0.0 0.01 1.38 0.12 97 1014.0
20260507110917 54 0.0 0.0 0.02 1.38 0.12 97 1013.9
20260507110417 54 0.0 0.0 0.02 1.38 0.12 97 1013.8
20260507105917 54 90 1.0 2.0 0.02 1.39 0.12 97 1013.8
20260507105416 54 0.0 0.0 0.02 1.39 0.12 97 1013.7
20260507104916 54 0.0 0.0 0.02 1.39 0.12 97 1013.9
20260507104417 54 0.0 0.0 0.02 1.39 0.12 97 1013.8
20260507103917 54 0.0 1.0 0.01 1.38 0.11 97 1014.0
20260507103416 54 0.0 0.0 0.01 1.38 0.11 97 1014.1
20260507102917 54 0.0 1.0 0.01 1.38 0.11 97 1013.8
20260507102416 54 0.0 0.0 0.01 1.38 0.11 97 1013.8
20260507101917 54 90 1.0 2.0 0.02 1.38 0.11 97 1014.0
20260507101417 55 0.0 0.0 0.02 1.38 0.11 97 1014.0
20260507100917 55 0.0 1.0 0.01 1.37 0.10 97 1014.0
20260507100416 55 0.0 0.0 0.01 1.37 0.10 97 1013.8
20260507095917 55 0.0 0.0 0.01 1.37 0.10 97 1013.7
20260507095416 55 0.0 0.0 0.01 1.37 0.10 97 1013.8
20260507094916 55 0.0 0.0 0.01 1.37 0.10 97 1013.7
20260507094416 55 0.0 0.0 0.01 1.37 0.10 97 1013.5
20260507093916 55 0.0 0.0 0.01 1.37 0.10 96 1013.5
20260507093416 55 0.0 2.0 0.01 1.37 0.10 96 1013.5
20260507092916 55 0.0 0.0 0.02 1.37 0.10 97 1013.6
20260507092416 55 0.0 0.0 0.02 1.37 0.10 96 1013.6
20260507091916 55 0.0 0.0 0.02 1.36 0.09 96 1013.5
20260507091417 55 0.0 0.0 0.04 1.36 0.09 96 1013.8
20260507090916 55 0.0 0.0 0.05 1.36 0.09 96 1013.9
20260507090417 55 0.0 0.0 0.05 1.36 0.09 96 1014.0
20260507085916 55 0.0 0.0 0.05 1.36 0.09 96 1013.9
20260507085416 55 0.0 0.0 0.05 1.36 0.09 96 1013.8
20260507084916 55 0.0 0.0 0.05 1.36 0.09 96 1013.6
20260507084416 55 0.0 0.0 0.06 1.36 0.09 96 1013.6
20260507083917 55 0.0 0.0 0.06 1.36 0.09 96 1013.6
20260507083416 55 0.0 0.0 0.06 1.36 0.09 96 1013.6
20260507082916 55 0.0 0.0 0.05 1.35 0.08 96 1013.4
20260507082416 55 0.0 0.0 0.05 1.35 0.08 96 1013.2
20260507081916 55 0.0 0.0 0.04 1.34 0.07 96 1013.5
20260507081416 55 0.0 0.0 0.02 1.32 0.05 96 1013.6
20260507080917 55 0.0 0.0 0.01 1.31 0.04 96 1013.9
20260507080417 55 0.0 0.0 0.01 1.31 0.04 96 1014.0
20260507075916 55 0.0 0.0 0.01 1.31 0.04 96 1013.8
20260507075416 55 0.0 0.0 0.01 1.31 0.04 96 1013.6
20260507074917 55 0.0 0.0 0.01 1.31 0.04 96 1013.0
20260507074416 55 0.0 2.0 0.00 1.30 0.03 96 1013.1
20260507073916 55 0.0 0.0 0.00 1.30 0.03 96 1013.1
20260507073416 55 0.0 1.0 0.00 1.30 0.03 96 1013.2
20260507072916 55 0.0 0.0 0.00 1.30 0.03 96 1013.6
20260507072416 55 0.0 1.0 0.00 1.30 0.03 96 1013.3
20260507071917 55 0.0 1.0 0.00 1.30 0.03 96 1013.3
20260507071416 55 0.0 0.0 0.00 1.30 0.03 96 1013.1
20260507070916 56 0.0 0.0 0.00 1.30 0.03 96 1013.2
20260507070416 56 0.0 0.0 0.00 1.30 0.03 96 1013.6
20260507065916 56 0.0 1.0 0.00 1.30 0.03 96 1013.8
20260507065416 56 0.0 1.0 0.00 1.30 0.03 96 1013.7
20260507064916 56 0.0 0.0 0.00 1.30 0.03 96 1013.6
20260507064416 56 0.0 0.0 0.00 1.30 0.03 96 1013.6
20260507063916 56 0.0 0.0 0.00 1.30 0.03 96 1013.5
20260507063417 56 0.0 0.0 0.00 1.30 0.03 96 1013.6
20260507062916 56 0.0 0.0 0.00 1.30 0.03 96 1013.4
20260507062416 56 0.0 0.0 0.00 1.30 0.03 96 1013.4
20260507061916 57 0.0 1.0 0.01 1.30 0.03 96 1013.3
20260507061416 57 0.0 1.0 0.01 1.30 0.03 96 1013.4
20260507060916 57 0.0 1.0 0.01 1.30 0.03 96 1013.5
20260507060417 57 203 1.0 1.0 0.02 1.30 0.03 96 1013.5
20260507055916 58 0.0 0.0 0.02 1.30 0.03 96 1013.6
20260507055416 58 0.0 0.0 0.03 1.30 0.03 97 1013.7
20260507054916 58 0.0 0.0 0.03 1.30 0.03 97 1014.0
20260507054417 58 0.0 0.0 0.03 1.30 0.03 96 1013.9
20260507053916 59 0.0 1.0 0.03 1.30 0.03 96 1014.0
20260507053416 59 0.0 1.0 0.03 1.30 0.03 97 1014.2
20260507052916 59 0.0 0.0 0.03 1.30 0.03 97 1014.2
20260507052416 60 0.0 0.0 0.03 1.30 0.03 97 1014.3
20260507051916 60 0.0 0.0 0.02 1.29 0.02 97 1014.1
20260507051416 60 0.0 1.0 0.02 1.29 0.02 97 1014.0
20260507050916 60 0.0 0.0 0.02 1.29 0.02 97 1014.0
20260507050416 60 0.0 0.0 0.01 1.28 0.01 97 1014.0
20260507045916 60 0.0 0.0 0.01 1.28 0.01 97 1014.1
20260507045416 60 0.0 1.0 0.00 1.27 0.00 97 1014.3
20260507044916 60 0.0 0.0 0.00 1.27 0.00 96 1013.7
20260507044416 61 0.0 0.0 0.00 1.27 0.00 97 1013.6
20260507043916 61 0.0 0.0 0.00 1.27 0.00 96 1013.6
20260507043416 61 0.0 0.0 0.00 1.27 0.00 97 1013.4
20260507042916 62 0.0 0.0 0.00 1.27 0.00 97 1013.3
20260507042416 62 0.0 0.0 0.00 1.27 0.00 97 1013.4
20260507041916 62 0.0 0.0 0.00 1.27 0.00 97 1013.6
20260507041416 62 0.0 0.0 0.00 1.27 0.00 97 1013.5
20260507040916 62 0.0 0.0 0.00 1.27 0.00 97 1013.6
20260507040416 63 0.0 0.0 0.00 1.27 0.00 97 1013.7
20260507035916 63 0.0 0.0 0.01 1.27 1.27 97 1013.6
20260507035415 63 0.0 0.0 0.01 1.27 1.27 97 1013.8
20260507034916 63 0.0 0.0 0.01 1.27 1.27 97 1013.6
20260507034415 63 0.0 0.0 0.02 1.27 1.27 97 1013.7
20260507033915 63 0.0 0.0 0.04 1.27 1.27 97 1013.5
20260507033416 63 0.0 0.0 0.05 1.27 1.27 97 1013.9
20260507032915 63 0.0 0.0 0.07 1.27 1.27 97 1014.3
20260507032415 63 0.0 0.0 0.08 1.27 1.27 97 1014.4
20260507031915 63 0.0 0.0 0.08 1.27 1.27 97 1014.0
20260507031416 63 0.0 0.0 0.08 1.27 1.27 97 1014.0
20260507030915 63 0.0 0.0 0.08 1.27 1.27 97 1014.2
20260507030415 63 0.0 0.0 0.08 1.27 1.27 97 1014.3
20260507025916 63 0.0 0.0 0.07 1.26 1.26 97 1014.5
20260507025415 63 0.0 1.0 0.07 1.26 1.26 97 1014.3
20260507024916 63 0.0 0.0 0.07 1.26 1.26 97 1013.8
20260507024415 63 0.0 1.0 0.06 1.25 1.25 97 1013.9
20260507023915 64 0.0 1.0 0.04 1.23 1.23 97 1014.2
20260507023415 64 0.0 1.0 0.03 1.22 1.22 97 1014.7
20260507022915 64 0.0 0.0 0.01 1.20 1.20 97 1014.3
20260507022415 64 0.0 0.0 0.00 1.19 1.19 97 1014.2
20260507021915 64 0.0 0.0 0.00 1.19 1.19 97 1014.3
20260507021415 64 0.0 1.0 0.00 1.19 1.19 97 1014.2
20260507020918 64 0.0 0.0 0.00 1.19 1.19 97 1014.1
20260507020417 64 0.0 1.0 0.00 1.19 1.19 97 1014.1
20260507015917 64 270 1.0 1.0 0.00 1.19 1.19 97 1014.0
20260507015415 64 0.0 2.0 0.00 1.19 1.19 97 1013.7
20260507014917 64 248 1.0 3.0 0.01 1.19 1.19 97 1013.9
20260507014418 64 68 1.0 2.0 0.03 1.19 1.19 97 1013.8
20260507013917 64 0.0 1.0 0.05 1.19 1.19 97 1014.1
20260507013415 64 0.0 1.0 0.07 1.19 1.19 97 1014.2
20260507012918 64 0.0 1.0 0.07 1.19 1.19 97 1013.6
20260507012417 64 0.0 0.0 0.08 1.19 1.19 97 1013.6
20260507011917 64 0.0 0.0 0.08 1.19 1.19 97 1013.6
20260507011415 64 0.0 0.0 0.08 1.19 1.19 97 1013.7
20260507010917 64 0.0 1.0 0.08 1.19 1.19 97 1013.9
20260507010417 64 0.0 0.0 0.08 1.19 1.19 97 1013.9
20260507005917 64 293 1.0 2.0 0.11 1.19 1.19 97 1013.8
20260507005417 65 0.0 1.0 0.15 1.19 1.19 96 1013.2
20260507004915 65 0.0 2.0 0.18 1.18 1.18 96 1013.7
20260507004417 65 0.0 1.0 0.17 1.16 1.16 96 1014.8
20260507003918 65 248 1.0 2.0 0.16 1.14 1.14 96 1014.5
20260507003417 65 248 1.0 3.0 0.14 1.12 1.12 96 1014.8
20260507002917 65 270 2.0 4.0 0.14 1.12 1.12 96 1014.8
20260507002417 65 0.0 1.0 0.13 1.11 1.11 96 1014.7
20260507001917 65 270 1.0 2.0 0.13 1.11 1.11 96 1014.4
20260507001417 65 248 1.0 3.0 0.13 1.11 1.11 96 1014.0
20260507000917 65 0.0 1.0 0.13 1.11 1.11 96 1013.5
20260507000420 65 203 2.0 5.0 0.13 1.11 1.11 96 1013.6
20260506235917 66 225 1.0 1.0 0.10 1.08 1.07 96 1013.4
20260506235417 66 225 2.0 4.0 0.06 1.04 1.04 96 1013.7
20260506234917 66 135 1.0 5.0 0.02 1.00 1.00 96 1013.6
20260506234417 66 248 2.0 3.0 0.02 0.99 0.99 96 1013.5
20260506233917 66 315 1.0 5.0 0.01 0.98 0.98 96 1013.7
20260506233417 66 203 1.0 3.0 0.02 0.98 0.98 96 1013.5
20260506232917 67 0.0 1.0 0.03 0.98 0.98 96 1013.2
20260506232417 67 0.0 0.0 0.04 0.98 0.98 96 1013.3
20260506231917 67 203 1.0 2.0 0.05 0.98 0.98 96 1013.4
20260506231417 67 0.0 1.0 0.07 0.98 0.98 96 1013.7
20260506230917 67 0.0 0.0 0.10 0.98 0.98 96 1013.6
20260506230417 67 0.0 1.0 0.12 0.98 0.98 96 1013.2
20260506225917 67 0.0 0.0 0.14 0.98 0.98 96 1013.0
20260506225417 67 0.0 1.0 0.15 0.98 0.98 97 1013.2
20260506224917 67 225 1.0 2.0 0.16 0.98 0.98 97 1013.1
20260506224417 67 0.0 1.0 0.15 0.97 0.97 96 1013.5
20260506223917 67 0.0 1.0 0.17 0.97 0.97 97 1013.8
20260506223417 67 248 1.0 1.0 0.17 0.96 0.96 96 1012.8
20260506222917 67 135 1.0 2.0 0.16 0.95 0.95 96 1013.3
20260506222417 67 0.0 2.0 0.15 0.94 0.94 96 1013.5
20260506221917 67 225 2.0 4.0 0.14 0.93 0.92 96 1013.4
20260506221417 67 0.0 1.0 0.12 0.91 0.91 96 1013.0
20260506220918 67 180 1.0 2.0 0.09 0.88 0.88 96 1013.1
20260506220417 67 0.0 1.0 0.07 0.86 0.86 95 1013.2
20260506215917 67 0.0 1.0 0.05 0.84 0.84 95 1013.3
20260506215417 67 0.0 1.0 0.04 0.83 0.83 95 1013.3
20260506214917 67 270 1.0 2.0 0.03 0.82 0.82 95 1013.2
20260506214417 68 135 1.0 3.0 0.04 0.82 0.82 95 1013.1
20260506213917 68 0.0 1.0 0.02 0.80 0.80 94 1012.9
20260506213417 68 0.0 1.0 0.02 0.79 0.79 94 1013.0
20260506212917 68 270 2.0 3.0 0.02 0.79 0.79 94 1013.6
20260506212417 68 225 1.0 1.0 0.02 0.79 0.79 94 1013.5
20260506211917 68 180 1.0 2.0 0.02 0.79 0.79 94 1013.3
20260506211417 68 203 1.0 3.0 0.02 0.79 0.79 94 1013.0
20260506210917 68 180 1.0 2.0 0.03 0.79 0.79 93 1013.0
20260506210417 68 0.0 2.0 0.03 0.79 0.79 94 1012.8
20260506205917 68 225 1.0 1.0 0.03 0.79 0.79 94 1012.3
20260506205417 68 225 1.0 2.0 0.03 0.79 0.79 94 1012.6
20260506204917 68 248 1.0 2.0 0.03 0.79 0.79 93 1012.1
20260506204417 68 0.0 1.0 0.02 0.78 0.78 93 1012.3
20260506203917 68 225 1.0 2.0 0.02 0.78 0.78 93 1012.9
20260506203417 68 0.0 1.0 0.01 0.77 0.77 93 1012.4
20260506202917 68 180 1.0 5.0 0.01 0.77 0.77 92 1012.6
20260506202417 68 0.0 1.0 0.01 0.77 0.77 92 1012.7
20260506201917 69 0.0 1.0 0.01 0.77 0.77 91 1013.0
20260506201417 69 248 1.0 3.0 0.01 0.77 0.77 91 1013.5
20260506200917 69 0.0 1.0 0.00 0.76 0.76 91 1013.8
20260506200417 69 0.0 1.0 0.00 0.76 0.76 91 1013.8
20260506195917 69 0.0 1.0 0.00 0.76 0.76 91 1014.0
20260506195417 69 203 1.0 3.0 0.00 0.76 0.76 90 1014.0
20260506194917 69 180 3.0 7.0 0.00 0.76 0.76 90 1013.9
20260506194417 69 225 4.0 8.0 0.00 0.76 0.76 91 1014.4
20260506193917 69 248 1.0 3.0 0.00 0.76 0.76 91 1014.4
20260506193417 69 248 1.0 3.0 0.00 0.76 0.76 91 1014.3